Weather History for South Lake Tahoe, CA

Change the Weather History Date:

Monday, July 29, 2013

  Actual Average Record
Temperature  
Mean Temperature 63 °F 62 °F  
Max Temperature 82 °F 82 °F 91 °F (1988)
Min Temperature 43 °F 42 °F 32 °F (1977)
Degree Days  
Heating Degree Days 2 4  
Month to date heating degree days 34 134  
Since 1 June heating degree days 228 444  
Since 1 July heating degree days 34 134  
Cooling Degree Days 0 1  
Month to date cooling degree days 68 17  
Year to date cooling degree days 89 18  
Since 1 June cooling degree days 89 18  
Growing Degree Days 11 (Base 50)    
Moisture  
Dew Point 35 °F    
Average Humidity 47    
Maximum Humidity 77    
Minimum Humidity 17    
Precipitation  
Precipitation 0.00 in - 0.16 in (1991)
Month to date precipitation 0.60  
Year to date precipitation 5.93  
Sea Level Pressure  
Sea Level Pressure 29.99 in    
Wind  
Wind Speed 4 mph (SSW)    
Max Wind Speed 22 mph    
Max Gust Speed 31 mph    
Visibility 10 miles    
Events      
T = Trace of Precipitation, MM = Missing Value Source: NWS Daily Summary

Daily Weather History Graph

Daily Weather History Graph

Search for Another Location

Airport:

Trip Planner

Search our weather history database for the weather conditions in past years. The results will help you decide how hot, cold, wet, or windy it might be!

Date:

Astronomy

Jul. 29, 2013 Rise Set
Actual Time 5:58 AM PDT 8:13 PM PDT
Civil Twilight 5:28 AM PDT 8:43 PM PDT
Nautical Twilight 4:51 AM PDT 9:20 PM PDT
Astronomical Twilight 4:11 AM PDT 10:00 PM PDT
Moon No Moon Rise 1:40 PM PDT (7/29)
Length of Visible Light 15h 14m
Length of Day
14h 15m
Waning Gibbous, 50% of the Moon is Illuminated
Jul 29
Waning Gibbous
Aug 6
New
Aug 14
First Quarter
Aug 20
Full
Aug 28
Last Quarter

Hourly Weather History & Observations

Time (PDT) Temp. Windchill Dew Point Humidity Pressure Visibility Wind Dir Wind Speed Gust Speed Precip Events Conditions
12:53 AM 51.1 °F - 42.1 °F 71% 29.94 in 10.0 mi Calm Calm - N/A   Clear
1:53 AM 48.9 °F - 41.0 °F 74% 29.94 in 10.0 mi Calm Calm - N/A   Clear
2:53 AM 46.9 °F - 39.0 °F 74% 29.94 in 10.0 mi Calm Calm - N/A   Clear
3:53 AM 46.0 °F - 37.9 °F 73% 29.95 in 10.0 mi Calm Calm - N/A   Clear
4:53 AM 45.0 °F - 37.0 °F 74% 29.95 in 10.0 mi Calm Calm - N/A   Clear
5:53 AM 44.1 °F - 36.0 °F 73% 29.96 in 10.0 mi Calm Calm - N/A   Clear
6:53 AM 44.1 °F 42.5 °F 37.0 °F 76% 29.99 in 10.0 mi South 3.5 mph - N/A   Clear
7:53 AM 53.1 °F - 39.9 °F 61% 29.98 in 10.0 mi South 3.5 mph - N/A   Clear
8:53 AM 68.0 °F - 39.9 °F 36% 29.96 in 10.0 mi Calm Calm - N/A   Clear
9:53 AM 73.9 °F - 27.0 °F 18% 29.96 in 10.0 mi SSW 6.9 mph 19.6 mph N/A   Clear
10:53 AM 75.0 °F - 28.9 °F 18% 29.96 in 10.0 mi South 9.2 mph 17.3 mph N/A   Clear
11:53 AM 77.0 °F - 32.0 °F 19% 29.98 in 10.0 mi SSW 10.4 mph - N/A   Clear
12:53 PM 77.0 °F - 32.0 °F 19% 29.99 in 10.0 mi SW 9.2 mph 17.3 mph N/A   Clear
1:53 PM 78.1 °F - 32.0 °F 19% 29.99 in 10.0 mi South 13.8 mph 24.2 mph N/A   Clear
2:53 PM 78.1 °F - 33.1 °F 19% 30.00 in 10.0 mi SW 9.2 mph 29.9 mph N/A   Clear
3:53 PM 77.0 °F - 34.0 °F 21% 30.01 in 10.0 mi South 18.4 mph 25.3 mph N/A   Clear
4:53 PM 77.0 °F - 36.0 °F 23% 30.02 in 10.0 mi SSW 11.5 mph 19.6 mph N/A   Clear
5:53 PM 75.0 °F - 34.0 °F 22% 30.03 in 10.0 mi SSW 8.1 mph 20.7 mph N/A   Clear
6:53 PM 72.0 °F - 33.1 °F 24% 30.04 in 10.0 mi SSW 6.9 mph - N/A   Clear
7:53 PM 69.1 °F - 32.0 °F 25% 30.04 in 10.0 mi SW 8.1 mph - N/A   Clear
8:53 PM 66.0 °F - 34.0 °F 30% 30.03 in 10.0 mi Variable 4.6 mph - N/A   Clear
9:53 PM 66.9 °F - 35.1 °F 31% 30.02 in 10.0 mi SSW 9.2 mph - N/A   Clear
10:53 PM 63.0 °F - 37.0 °F 38% 30.04 in 10.0 mi Variable 3.5 mph - N/A   Clear
11:53 PM 55.0 °F - 37.0 °F 51% 30.07 in 10.0 mi Calm Calm - N/A   Clear